Вернуться в каталог

STARLINK-30989

АктивенСвязьVLEO
NORAD 58510·PAYLOAD·🇺🇸 United States

Запущен Dec 7, 2023 с Cape Canaveral Space Force Station

Loading…

Ближайшие Пролёты (ближайшие 24 часа)

TLE

СвежийSource: CelesTrak SupGP

Эпоха: Sep 15, 2026, 03:23 UTC

1 58510C 23191C   26258.14145833  .00033294  00000+0  12057-2 0  2582
2 58510  42.9997 113.7780 0001479 274.3202  41.6174 15.27566190    15

Отслеживайте STARLINK-30989 в реальном времени с AllMySat

Download on the App Store